Aérodrome :
LOGIN :

S'inscrire | Disclaimer

   EN    FR    IT 

 










Légende :    VFR   VFR Marginal   IFR   IFR Intensif   IFR Très Intensif
Visi : 
Plafond : 
>= 8 km
>= 3000ft
5 à 8 km
1000 à 3000 ft
1500m à 5 km
500 à 1000 ft
800 à 1500m
200 à 500 ft
< 800m
< 200 ft
Symboles :   Orages  Brouillard  Fortes neiges  Fortes précipitations  Vent > 20 kt
SIGMETs :   Divers  Orages  Givrage  Turbulence  Onde Orograph.  Cendres Volcan.







- Altitude de l'aérodrome : 82 ft
- Code IATA : AAR


EKAH - Aarhus Tirstrup

DERNIER METAR :
  • 171450Z AUTO 13008KT 100V160 9999NDV SCT160/// 26/17 Q1013

METARs EXPIRÉS :
  • 171420Z AUTO 13008KT 100V160 9999NDV SCT160/// 25/17 Q1013
  • 171350Z AUTO 12007KT 100V170 9999NDV NCD 27/17 Q1013
  • 171320Z AUTO 12006KT 090V150 9999NDV NCD 28/17 Q1013
  • 171250Z AUTO 13006KT 100V170 9999NDV NCD 28/16 Q1013
  • 171220Z AUTO 13007KT 090V170 9999NDV NCD 29/16 Q1013

TAF TAF EKAH
Valide du 17 à 12h jusqu'au 18 à 12h UTC


171057Z 1712/1812 VRB03KT CAVOK
Pas de NOTAMs connus pour ce terrain.



MET'MAP, la Météo Aéronautique d'un coup d'oeil ! - Copyright ORBIFLY Décembre 2007 - Disclaimer

ORBIFLY MET'MAP TEAM :

Programmation & Développement : Alexandra Zaïnal
Conception & Développement : Baudouin d'Aumeries
Co-Programmation & Développement : Marc-Olivier Méhu
Soutien technique & logistique : Manuel Goepfert

Contact : metmap@orbifly.com




SOURCES & CREDITS :

   NOAA